Wind_Speed
6 8 11 14 13 21 27 36 33 19 17 20 26 28 27 28 23 21 19 16 14 12 12 12 12 11 15 20 26 28 25 30 27 28 21 22 17 17 19 23 11 16 24 20
8 8 8 13 17 17 25 31 30 16 17 25 25 27 19 23 26 28 23 19 13 10 9 8 12 9 11 16 20 23 22 28 26 28 28 22 19 14 10 4 12 18 23 20
10 8 8 10 11 14 16 19 21 31 23 27 23 14 8 15 27 32 29 27 24 12 13 11 11 12 9 10 12 21 22 24 25 26 25 23 19 13 4 1 6 21 28 24
12 11 9 8 9 9 11 13 15 23 36 36 30 21 24 28 29 27 33 30 27 15 13 14 14 15 13 9 9 17 24 24 23 23 24 23 20 20 24 12 22 26 28 26
13 12 12 10 9 9 8 11 15 15 18 26 28 24 28 31 32 22 28 32 29 24 17 17 16 16 16 16 12 14 21 25 24 25 25 21 20 21 21 13 13 27 26 24
15 14 13 12 11 11 9 10 11 11 12 18 26 32 27 25 37 29 31 33 31 26 27 21 19 20 19 21 20 18 18 22 23 23 24 25 24 24 23 31 18 25 24 22
14 14 15 14 14 13 12 11 12 13 13 18 21 30 26 44 46 40 40 32 35 34 30 31 25 26 20 24 24 24 23 21 23 24 25 26 27 29 28 25 21 18 21 21
15 15 15 16 16 16 16 16 14 14 16 18 15 24 29 31 51 46 49 45 44 39 38 33 35 28 22 25 27 28 26 26 25 25 27 26 26 27 28 26 23 23 22 20
18 17 17 18 20 21 20 20 19 17 18 20 22 30 28 31 17 21 35 55 57 53 48 44 40 38 29 25 28 29 30 28 28 28 30 33 29 27 27 26 24 23 25 21
20 22 22 21 23 24 25 24 22 20 19 21 27 28 33 23 27 27 28 33 44 49 51 50 46 43 34 30 28 30 26 28 32 33 36 37 34 31 26 24 25 25 26 25
23 26 28 29 27 26 25 24 24 24 22 23 27 30 24 31 27 29 27 31 29 38 41 34 41 44 41 38 32 33 30 32 31 36 38 41 38 36 33 28 29 28 28 30
26 28 28 29 29 26 21 20 22 24 25 24 27 29 20 34 25 29 26 30 30 31 30 33 40 44 15 30 33 38 40 39 35 35 36 38 37 38 41 36 32 31 34 34
26 26 25 25 24 25 24 20 19 21 22 23 27 22 23 34 35 31 25 28 28 26 28 28 39 32 27 38 62 42 42 46 42 36 36 35 37 36 37 40 39 36 36 38
22 19 18 19 19 18 19 16 15 15 16 17 22 22 11 4 33 31 27 25 25 23 21 27 31 44 42 47 34 50 47 51 51 44 39 33 32 35 38 39 41 40 40 42
18 17 19 12 11 12 11 11 13 12 12 12 14 15 16 22 24 28 25 23 23 22 17 24 33 46 62 41 33 32 40 47 53 48 42 39 35 32 35 40 40 40 42 42
16 13 12 12 15 14 11 11 11 12 10 11 12 12 12 16 15 18 19 20 20 20 19 19 31 47 59 49 50 50 47 48 47 47 34 33 44 41 39 39 44 42 39 42
11 10 12 14 13 11 10 11 13 13 10 12 9 11 14 16 19 18 16 16 16 19 23 23 24 49 63 62 57 58 57 55 50 46 47 52 58 45 43 47 40 45 49 48
10 9 8 7 7 10 11 13 14 17 17 18 13 13 15 16 15 16 20 17 18 17 16 25 29 33 44 67 66 67 61 61 52 58 60 56 65 59 52 44 48 54 54 61
12 11 9 9 9 10 10 16 16 20 19 22 22 22 27 29 24 16 21 29 4 44 21 20 21 31 34 41 50 50 49 55 69 67 71 74 58 57 60 55 54 46 46 60
15 13 14 14 16 16 14 21 21 21 23 27 28 27 27 27 28 25 27 28 33 28 35 35 29 32 26 27 34 44 47 44 43 58 71 73 75 65 66 66 68 64 45 44
19 19 20 19 20 22 17 23 26 24 26 26 28 26 24 24 27 28 28 29 33 26 38 34 55 40 32 25 27 28 34 47 51 46 54 72 75 74 79 76 83 74 58 50
24 26 27 25 27 26 25 25 28 31 31 32 31 30 28 30 33 37 33 32 33 38 42 34 40 40 24 56 66 36 39 40 47 57 54 56 66 77 85 84 86 83 85 75
28 29 28 30 26 23 26 28 29 35 38 37 36 36 36 37 39 45 49 50 50 48 50 43 42 45 48 58 58 55 46 57 65 55 57 61 58 73 83 90 90 88 87 88
31 28 29 30 29 24 28 36 38 37 39 40 40 39 43 39 43 46 54 58 60 62 63 60 55 61 63 64 62 60 53 52 45 60 55 59 61 66 76 81 82 85 93 92
30 21 24 32 31 30 36 36 36 40 42 41 42 45 47 48 52 55 60 64 67 71 72 73 71 66 69 72 73 69 75 76 77 71 63 60 60 65 69 72 75 79 85 90
31 31 30 30 34 36 41 40 41 43 44 45 45 48 51 53 56 61 65 68 72 75 77 78 80 83 79 79 83 85 83 83 82 79 71 69 68 68 68 71 73 77 79 87
Wind_Direction
307 277 265 260 240 208 219 209 237 266 281 281 261 256 259 272 276 263 261 257 280 285 294 292 266 252 247 232 224 224 227 216 211 206 206 215 244 248 265 277 236 214 206 200
348 318 284 271 261 248 230 235 236 225 296 282 266 249 272 310 293 297 279 271 267 272 273 291 257 250 259 256 228 217 216 211 215 217 225 231 236 246 249 219 198 207 216 220
344 335 316 299 289 280 269 256 238 217 253 263 263 237 164 175 258 280 284 286 280 256 257 274 272 242 243 273 250 207 203 206 213 217 215 225 230 208 178 220 229 232 230 233
326 322 317 307 295 279 272 271 258 246 241 253 259 234 182 209 243 265 274 268 278 262 256 248 270 246 229 227 253 207 204 202 204 210 210 212 211 211 195 201 221 225 224 231
317 319 318 312 300 293 283 257 258 262 261 258 257 249 216 214 230 262 257 259 266 269 259 255 253 255 237 221 210 215 213 216 212 210 211 213 209 220 222 181 212 224 219 230
311 312 313 309 303 298 294 284 274 265 257 253 252 251 205 208 251 239 260 253 256 258 267 265 245 242 247 227 217 211 213 213 216 217 217 211 206 212 219 224 237 207 218 236
308 307 307 307 302 298 295 286 279 276 260 245 248 251 216 218 227 226 242 248 258 257 252 263 260 234 250 235 220 217 216 221 222 222 221 215 207 205 211 221 225 226 230 237
305 303 304 304 301 299 298 296 289 277 269 274 261 250 269 229 232 232 248 253 259 254 251 250 258 254 237 240 231 219 216 217 221 226 226 220 217 215 216 223 230 236 232 223
304 300 300 302 299 298 295 292 290 282 273 261 255 259 251 267 292 264 249 243 247 250 250 251 250 254 242 238 232 224 221 217 220 219 224 216 216 222 227 232 233 228 219 225
306 304 302 299 297 294 291 289 287 281 275 266 263 265 275 273 261 253 263 258 250 247 246 248 247 247 245 247 231 227 228 232 224 219 218 217 223 217 218 222 226 226 230 235
306 306 304 300 296 292 288 283 281 279 273 269 268 270 272 272 270 264 262 267 262 257 253 250 275 249 248 249 238 237 235 248 244 232 221 221 223 226 224 222 228 233 238 238
306 302 298 296 294 290 281 275 271 270 271 273 272 280 303 288 280 277 266 263 264 260 255 174 243 248 285 285 258 247 247 243 243 244 238 228 229 230 236 237 235 240 242 245
303 299 294 287 286 284 285 281 276 276 275 274 275 276 251 268 289 278 272 264 263 265 260 244 229 218 213 247 262 235 241 242 245 242 241 239 234 236 240 245 245 248 249 250
298 293 288 295 297 287 290 292 292 285 281 279 278 282 252 216 271 277 274 272 266 266 261 251 233 214 177 199 245 245 232 236 238 241 237 240 241 243 240 243 245 245 249 252
292 291 299 294 297 305 308 302 305 310 316 317 319 313 305 279 277 281 282 277 272 264 257 252 239 227 203 217 254 231 228 232 234 233 239 238 241 242 245 252 248 248 246 248
294 297 294 298 301 302 304 310 327 338 350 351 353 360 343 340 335 317 294 280 272 271 258 244 237 232 236 238 242 245 240 233 235 229 223 258 256 243 245 248 250 253 250 249
297 291 284 293 298 295 294 310 320 326 330 333 341 355 4 4 2 352 335 326 300 274 263 243 238 228 232 239 246 253 253 249 240 207 219 226 234 236 241 243 242 253 255 255
304 299 302 289 272 276 283 292 303 308 316 319 325 334 330 327 332 339 333 330 350 335 301 271 253 246 234 237 245 249 251 245 225 209 209 223 234 234 230 235 236 243 260 256
290 295 280 264 262 266 283 286 291 301 309 311 312 324 318 321 328 332 314 317 45 271 340 334 298 266 268 257 246 245 247 253 249 243 234 233 225 229 225 225 234 223 223 246
269 277 278 280 272 277 281 289 291 291 302 295 303 309 306 317 310 318 317 322 323 262 315 328 340 323 312 302 289 280 272 265 254 243 232 230 224 232 222 227 233 229 241 247
267 269 273 277 282 283 292 284 296 297 298 305 300 304 296 304 305 306 311 313 316 277 303 335 316 311 316 300 294 289 286 283 268 254 241 235 229 230 227 232 232 235 237 253
268 279 284 281 282 282 278 288 294 295 294 301 303 301 300 299 298 304 303 305 302 299 305 307 288 296 314 303 289 288 297 294 282 267 250 241 240 227 229 230 230 238 240 244
268 285 288 291 278 279 280 284 287 293 295 299 298 296 299 296 290 291 301 305 299 296 297 292 291 279 283 243 256 271 291 283 283 272 261 250 250 237 237 236 235 241 242 243
269 273 283 284 278 274 282 289 296 298 300 299 296 295 300 297 296 297 295 296 296 294 293 289 288 281 277 273 277 261 260 256 251 273 268 255 254 254 244 241 239 245 241 242
275 265 281 281 275 281 288 295 296 299 299 297 298 300 301 298 301 297 293 293 291 292 291 289 286 281 277 274 273 268 268 265 266 268 269 265 259 255 251 249 247 248 247 246
276 274 282 276 275 282 290 295 296 300 300 301 301 301 301 297 295 294 295 298 296 293 290 286 282 279 274 268 265 263 261 259 260 259 260 261 258 256 252 251 250 247 248 248
Height
10938 10939 10938 10938 10941 10945 10943 10944 10942 10950 10949 10950 10951 10951 10954 10952 10954 10954 10955 10957 10958 10959 10958 10957 10957 10957 10958 10960 10962 10966 10969 10972 10973 10974 10978 10983 10985 10987 10992 10993 10994 10997 10998 10999
10935 10935 10935 10933 10933 10937 10940 10939 10941 10946 10939 10939 10942 10944 10955 10953 10946 10953 10954 10953 10954 10955 10956 10956 10956 10956 10957 10957 10958 10962 10965 10967 10969 10971 10975 10979 10981 10988 10995 10998 11000 11001 10999 10996
10933 10932 10931 10930 10929 10929 10930 10931 10934 10938 10931 10932 10936 10945 10953 10945 10940 10945 10947 10947 10949 10951 10953 10954 10954 10955 10955 10956 10957 10959 10962 10964 10966 10969 10973 10974 10981 10990 10996 10992 10982 10996 11002 10998
10930 10929 10928 10927 10926 10925 10924 10924 10926 10928 10928 10928 10930 10936 10941 10944 10941 10945 10941 10941 10943 10947 10948 10951 10952 10953 10954 10955 10957 10958 10961 10962 10963 10965 10968 10970 10980 10981 10984 10989 10983 10988 11000 11000
10927 10926 10925 10924 10923 10922 10922 10921 10920 10920 10922 10924 10924 10926 10931 10935 10938 10933 10934 10934 10938 10941 10943 10945 10949 10951 10952 10953 10955 10958 10960 10961 10961 10961 10964 10968 10975 10973 10973 10980 10981 10985 10991 10997
10923 10923 10922 10921 10919 10918 10918 10917 10917 10916 10917 10918 10919 10914 10925 10918 10920 10924 10927 10929 10931 10936 10937 10939 10943 10946 10948 10950 10952 10954 10958 10960 10961 10960 10961 10964 10971 10972 10967 10961 10973 10975 10982 10988
10920 10919 10918 10917 10916 10915 10914 10914 10913 10912 10912 10911 10910 10904 10917 10915 10914 10921 10921 10922 10924 10927 10931 10933 10937 10940 10942 10946 10948 10951 10953 10955 10958 10959 10958 10960 10965 10970 10970 10968 10968 10973 10980 10978
10915 10914 10914 10912 10911 10911 10909 10909 10909 10909 10907 10907 10910 10905 10900 10907 10907 10919 10913 10914 10917 10920 10922 10926 10929 10934 10937 10940 10944 10947 10949 10951 10953 10955 10957 10956 10957 10961 10966 10969 10971 10972 10973 10975
10911 10911 10910 10908 10906 10905 10905 10904 10904 10904 10904 10903 10901 10896 10896 10894 10905 10906 10906 10905 10905 10909 10911 10914 10921 10926 10933 10937 10940 10943 10946 10948 10950 10952 10953 10955 10956 10958 10961 10963 10965 10968 10969 10971
10907 10906 10905 10904 10902 10900 10899 10897 10897 10897 10897 10897 10893 10895 10890 10898 10898 10899 10900 10895 10894 10895 10899 10905 10912 10918 10926 10931 10936 10939 10943 10945 10945 10946 10949 10952 10955 10956 10958 10960 10962 10965 10968 10969
10903 10901 10898 10896 10896 10894 10892 10891 10889 10889 10890 10890 10888 10885 10891 10887 10890 10890 10891 10888 10888 10888 10892 10911 10925 10916 10917 10920 10925 10930 10934 10938 10941 10942 10944 10947 10951 10955 10956 10958 10961 10963 10965 10966
10898 10895 10892 10889 10886 10886 10885 10885 10883 10882 10882 10882 10880 10879 10880 10877 10885 10882 10884 10882 10881 10882 10888 10917 10880 10919 10915 10917 10916 10918 10920 10927 10933 10936 10938 10940 10944 10948 10950 10953 10956 10959 10960 10961
10890 10888 10885 10882 10882 10877 10877 10878 10878 10877 10877 10876 10872 10876 10877 10876 10873 10874 10876 10875 10875 10876 10879 10886 10892 10894 10905 10891 10901 10898 10905 10916 10922 10928 10931 10932 10935 10939 10941 10944 10947 10950 10952 10954
10885 10883 10880 10877 10876 10874 10872 10872 10872 10872 10872 10871 10868 10867 10872 10865 10864 10866 10867 10869 10870 10871 10873 10869 10868 10869 10885 10880 10865 10878 10885 10902 10909 10916 10922 10925 10928 10930 10932 10933 10935 10937 10940 10943
10882 10879 10876 10875 10873 10872 10871 10869 10868 10868 10867 10867 10866 10864 10862 10860 10860 10859 10861 10863 10865 10868 10870 10865 10859 10858 10857 10859 10862 10864 10877 10887 10893 10904 10912 10917 10918 10918 10923 10926 10926 10926 10927 10931
10877 10874 10873 10872 10871 10870 10868 10867 10867 10866 10865 10864 10862 10860 10858 10856 10856 10855 10855 10856 10857 10859 10864 10865 10858 10855 10852 10853 10859 10861 10864 10874 10882 10894 10909 10908 10908 10905 10906 10911 10916 10916 10914 10918
10873 10872 10871 10869 10867 10866 10866 10865 10864 10863 10863 10862 10861 10860 10859 10857 10853 10851 10849 10848 10848 10851 10852 10856 10857 10855 10852 10851 10851 10850 10854 10865 10874 10887 10887 10883 10886 10884 10882 10892 10904 10905 10905 10905
10869 10868 10867 10866 10865 10864 10864 10863 10862 10860 10859 10858 10858 10858 10856 10852 10849 10846 10843 10843 10846 10847 10847 10851 10852 10853 10854 10851 10849 10849 10850 10855 10859 10867 10870 10869 10866 10870 10874 10880 10888 10887 10891 10884
10865 10865 10864 10864 10863 10862 10862 10859 10859 10856 10856 10855 10854 10855 10851 10846 10841 10841 10841 10841 10848 10852 10838 10840 10846 10847 10849 10852 10853 10849 10844 10840 10840 10844 10847 10854 10853 10855 10861 10865 10868 10871 10862 10864
10861 10860 10860 10860 10859 10858 10858 10854 10854 10853 10854 10849 10849 10850 10847 10841 10833 10834 10832 10831 10828 10828 10828 10831 10836 10836 10835 10834 10839 10844 10844 10838 10831 10827 10829 10829 10836 10840 10846 10846 10847 10851 10844 10846
10856 10856 10855 10854 10854 10854 10854 10849 10847 10847 10846 10845 10843 10844 10842 10837 10828 10827 10829 10827 10822 10824 10826 10830 10833 10829 10820 10819 10817 10815 10817 10823 10823 10814 10815 10818 10820 10823 10826 10830 10830 10829 10831 10835
10850 10849 10849 10848 10848 10847 10846 10844 10841 10839 10838 10836 10836 10835 10835 10831 10824 10813 10816 10817 10818 10816 10815 10826 10828 10817 10808 10803 10804 10797 10797 10796 10801 10809 10802 10800 10805 10807 10805 10807 10809 10810 10814 10819
10844 10844 10842 10840 10840 10840 10838 10836 10836 10832 10828 10828 10826 10825 10824 10823 10819 10810 10801 10799 10801 10801 10799 10808 10806 10796 10790 10790 10795 10782 10793 10780 10782 10783 10785 10784 10784 10791 10790 10791 10793 10794 10796 10800
10836 10837 10835 10832 10831 10834 10830 10826 10825 10823 10819 10816 10813 10812 10810 10810 10809 10807 10800 10790 10784 10781 10781 10785 10792 10775 10769 10762 10758 10752 10760 10769 10759 10765 10764 10762 10762 10766 10770 10770 10771 10772 10777 10780
10827 10830 10829 10824 10823 10823 10820 10820 10818 10814 10810 10806 10803 10800 10796 10792 10788 10785 10781 10776 10770 10763 10758 10755 10760 10769 10756 10741 10730 10733 10729 10733 10736 10740 10743 10742 10741 10746 10746 10747 10750 10752 10754 10758
10819 10821 10821 10819 10816 10813 10808 10808 10807 10804 10799 10795 10791 10787 10782 10777 10772 10765 10759 10751 10743 10736 10728 10723 10718 10716 10726 10727 10720 10714 10714 10714 10713 10712 10716 10716 10722 10724 10723 10724 10727 10732 10734 10738